EN

Hourly Weather Ostanine

Today, 18 May, Tuesday

Time Temperature Precipitation Wind Pressure Humidity
00:00 +14°C° 0 mm 6 mps 754 mmHg 93%
01:00 +14°C° 0 mm 6 mps 754 mmHg 95%
02:00 +14°C° 0 mm 6 mps 753 mmHg 96%
03:00 +14°C° 0 mm 6 mps 754 mmHg 95%
04:00 +14°C° 0 mm 5 mps 754 mmHg 95%
05:00 +14°C° 0 mm 5 mps 754 mmHg 95%
06:00 +15°C° 0 mm 6 mps 754 mmHg 87%
07:00 +17°C° 0 mm 7 mps 754 mmHg 79%
08:00 +18°C° 0 mm 7 mps 754 mmHg 71%
09:00 +18°C° 0 mm 8 mps 754 mmHg 68%
10:00 +20°C° 0 mm 8 mps 754 mmHg 65%
11:00 +21°C° 0 mm 8 mps 754 mmHg 63%
12:00 +21°C° 0 mm 8 mps 754 mmHg 64%
13:00 +21°C° 0 mm 8 mps 754 mmHg 65%
14:00 +20°C° 0 mm 8 mps 754 mmHg 66%
15:00 +20°C° 0 mm 8 mps 754 mmHg 71%
16:00 +18°C° 0 mm 8 mps 754 mmHg 75%
17:00 +17°C° 0 mm 8 mps 753 mmHg 80%
18:00 +16°C° 0.2 mm 8 mps 753 mmHg 84%
19:00 +15°C° 0.2 mm 7 mps 753 mmHg 89%
20:00 +15°C° 0.2 mm 7 mps 753 mmHg 94%
21:00 +15°C° 0.4 mm 6 mps 753 mmHg 94%
22:00 +15°C° 0.4 mm 5 mps 753 mmHg 94%
23:00 +14°C° 0.4 mm 4 mps 753 mmHg 95%

Tomorrow, 19 May, Wednesday

Time Temperature Precipitation Wind Pressure Humidity
00:00 +14°C° 1.1 mm 4 mps 753 mmHg 93%
01:00 +14°C° 1.1 mm 4 mps 753 mmHg 91%
02:00 +14°C° 1.1 mm 4 mps 753 mmHg 89%
03:00 +14°C° 0.1 mm 4 mps 753 mmHg 89%
04:00 +14°C° 0.1 mm 5 mps 753 mmHg 88%
05:00 +14°C° 0.1 mm 5 mps 753 mmHg 88%
06:00 +15°C° 0.1 mm 6 mps 753 mmHg 79%
07:00 +16°C° 0.1 mm 6 mps 754 mmHg 69%
08:00 +19°C° 0.1 mm 6 mps 754 mmHg 60%
09:00 +18°C° 0.2 mm 7 mps 755 mmHg 59%
10:00 +18°C° 0.2 mm 8 mps 755 mmHg 59%
11:00 +18°C° 0.2 mm 8 mps 755 mmHg 58%
12:00 +18°C° 0.2 mm 8 mps 755 mmHg 60%
13:00 +18°C° 0.2 mm 8 mps 756 mmHg 62%
14:00 +18°C° 0.2 mm 7 mps 756 mmHg 64%
15:00 +17°C° 0.1 mm 8 mps 756 mmHg 66%
16:00 +17°C° 0.1 mm 8 mps 756 mmHg 67%
17:00 +17°C° 0.1 mm 8 mps 756 mmHg 69%
18:00 +16°C° 0 mm 8 mps 756 mmHg 74%
19:00 +14°C° 0 mm 7 mps 757 mmHg 79%
20:00 +13°C° 0 mm 6 mps 757 mmHg 84%
21:00 +13°C° 0 mm 6 mps 757 mmHg 84%
22:00 +12°C° 0 mm 5 mps 757 mmHg 85%
23:00 +12°C° 0 mm 5 mps 757 mmHg 85%

Day after tomorrow, 20 May, Thursday

Time Temperature Precipitation Wind Pressure Humidity
00:00 +12°C° 0 mm 5 mps 757 mmHg 88%
01:00 +12°C° 0 mm 5 mps 757 mmHg 91%
02:00 +13°C° 0 mm 5 mps 757 mmHg 93%
03:00 +13°C° 0 mm 5 mps 757 mmHg 92%
04:00 +13°C° 0 mm 4 mps 757 mmHg 90%
05:00 +13°C° 0 mm 4 mps 757 mmHg 88%
06:00 +15°C° 0 mm 4 mps 757 mmHg 78%
07:00 +18°C° 0 mm 3 mps 757 mmHg 68%
08:00 +19°C° 0 mm 3 mps 757 mmHg 57%
09:00 +20°C° 0 mm 3 mps 757 mmHg 54%
10:00 +21°C° 0 mm 3 mps 757 mmHg 50%
11:00 +22°C° 0 mm 3 mps 757 mmHg 47%
12:00 +22°C° 0 mm 3 mps 757 mmHg 46%
13:00 +22°C° 0 mm 3 mps 756 mmHg 45%
14:00 +24°C° 0 mm 3 mps 756 mmHg 44%
15:00 +22°C° 0 mm 3 mps 756 mmHg 46%
16:00 +22°C° 0 mm 3 mps 756 mmHg 47%
17:00 +22°C° 0 mm 3 mps 755 mmHg 48%
18:00 +20°C° 0 mm 3 mps 755 mmHg 55%
19:00 +18°C° 0 mm 3 mps 755 mmHg 61%
20:00 +15°C° 0 mm 4 mps 755 mmHg 68%
21:00 +16°C° 0 mm 3 mps 755 mmHg 73%
22:00 +16°C° 0 mm 3 mps 755 mmHg 77%
23:00 +15°C° 0 mm 2 mps 754 mmHg 82%

21 May, Friday

Time Temperature Precipitation Wind Pressure Humidity
00:00 +16°C° 0 mm 2 mps 754 mmHg 79%
01:00 +16°C° 0 mm 2 mps 754 mmHg 77%
02:00 +17°C° 0 mm 2 mps 754 mmHg 75%
03:00 +17°C° 0 mm 2 mps 754 mmHg 77%
04:00 +16°C° 0 mm 3 mps 754 mmHg 80%
05:00 +16°C° 0 mm 3 mps 754 mmHg 82%
06:00 +17°C° 0 mm 3 mps 754 mmHg 78%
07:00 +19°C° 0 mm 3 mps 754 mmHg 73%
08:00 +20°C° 0 mm 4 mps 754 mmHg 69%
09:00 +21°C° 0 mm 4 mps 755 mmHg 65%
10:00 +22°C° 0 mm 4 mps 755 mmHg 60%
11:00 +25°C° 0 mm 4 mps 755 mmHg 56%
12:00 +25°C° 0 mm 4 mps 755 mmHg 56%
13:00 +25°C° 0 mm 4 mps 755 mmHg 57%
14:00 +23°C° 0 mm 4 mps 755 mmHg 57%
15:00 +23°C° 0 mm 4 mps 755 mmHg 60%
16:00 +22°C° 0 mm 4 mps 755 mmHg 63%
17:00 +21°C° 0 mm 3 mps 755 mmHg 66%
18:00 +19°C° 0 mm 4 mps 755 mmHg 72%
19:00 +18°C° 0 mm 4 mps 754 mmHg 78%
20:00 +15°C° 0 mm 4 mps 754 mmHg 84%
21:00 +15°C° 0 mm 4 mps 754 mmHg 85%
22:00 +15°C° 0 mm 4 mps 754 mmHg 86%
23:00 +16°C° 0 mm 3 mps 754 mmHg 87%

22 May, Saturday

Time Temperature Precipitation Wind Pressure Humidity
00:00 +15°C° 0 mm 4 mps 754 mmHg 87%
01:00 +15°C° 0 mm 4 mps 753 mmHg 87%
02:00 +17°C° 0 mm 4 mps 753 mmHg 87%
03:00 +17°C° 0 mm 4 mps 753 mmHg 89%
04:00 +18°C° 0 mm 4 mps 752 mmHg 90%
05:00 +18°C° 0 mm 4 mps 752 mmHg 92%
06:00 +20°C° 0 mm 5 mps 752 mmHg 86%
07:00 +22°C° 0 mm 5 mps 752 mmHg 80%
08:00 +26°C° 0 mm 5 mps 752 mmHg 74%
09:00 +27°C° 0 mm 5 mps 752 mmHg 68%
10:00 +28°C° 0 mm 5 mps 752 mmHg 63%
11:00 +29°C° 0 mm 5 mps 753 mmHg 57%
12:00 +29°C° 0 mm 4 mps 752 mmHg 57%
13:00 +29°C° 0 mm 4 mps 752 mmHg 58%
14:00 +29°C° 0 mm 4 mps 752 mmHg 58%
15:00 +28°C° 0 mm 4 mps 752 mmHg 62%
16:00 +27°C° 0 mm 4 mps 751 mmHg 66%
17:00 +26°C° 0 mm 5 mps 751 mmHg 70%
18:00 +23°C° 0 mm 4 mps 751 mmHg 76%
19:00 +22°C° 0 mm 3 mps 752 mmHg 82%
20:00 +20°C° 0 mm 2 mps 752 mmHg 88%
21:00 +20°C° 0 mm 3 mps 752 mmHg 89%
22:00 +19°C° 0 mm 3 mps 752 mmHg 91%
23:00 +19°C° 0 mm 3 mps 752 mmHg 92%

23 May, Sunday

Time Temperature Precipitation Wind Pressure Humidity
00:00 +19°C° 0 mm 3 mps 752 mmHg 93%
01:00 +19°C° 0 mm 4 mps 751 mmHg 95%
02:00 +19°C° 0 mm 4 mps 751 mmHg 96%
03:00 +19°C° 0 mm 5 mps 751 mmHg 96%
04:00 +20°C° 0 mm 6 mps 751 mmHg 95%
05:00 +20°C° 0 mm 6 mps 751 mmHg 95%
06:00 +21°C° 0 mm 6 mps 751 mmHg 88%
07:00 +23°C° 0 mm 6 mps 751 mmHg 80%
08:00 +25°C° 0 mm 5 mps 751 mmHg 73%
09:00 +26°C° 0 mm 5 mps 751 mmHg 69%
10:00 +28°C° 0 mm 4 mps 751 mmHg 65%
11:00 +29°C° 0 mm 3 mps 751 mmHg 61%
12:00 +29°C° 0 mm 3 mps 751 mmHg 62%
13:00 +28°C° 0 mm 3 mps 751 mmHg 64%
14:00 +28°C° 0 mm 3 mps 751 mmHg 65%
15:00 +27°C° 0 mm 3 mps 751 mmHg 68%
16:00 +26°C° 0 mm 3 mps 751 mmHg 70%
17:00 +25°C° 0 mm 3 mps 750 mmHg 72%
18:00 +24°C° 0 mm 3 mps 751 mmHg 77%
19:00 +22°C° 0 mm 3 mps 751 mmHg 81%
20:00 +20°C° 0 mm 2 mps 751 mmHg 86%
21:00 +20°C° 0 mm 2 mps 751 mmHg 88%
22:00 +19°C° 0 mm 2 mps 751 mmHg 91%
23:00 +19°C° 0 mm 3 mps 750 mmHg 93%
Show more

We Need Your Consent

Meteoprog and our Service Providers may store and access personal data such as cookies, device identifiers or other similar technologies on your device and process such data to personalise content and ads, as well as provide social media features and to analyse the traffic.

  • Store and/or access information on your device

    Cookies, device identifiers or other information can be stored or accessed on your device for the purposes indicated above.

  • Personalised ads and content, ad and content measurement, audience insights, and products development

    Ads and content can be personalised based on a profile. More data can be added to better personalise ads and content. Ad and content performance can be measured. Insights about the audience who saw the ads and content can be derived. Such data can be used to develop or improve user’s experience, systems and software.

By clicking ‘I Agree’ you will allow the use of indicated cookies, device identifiers, web beacons or other similar technologies. Your settings can be changed in the browser on your device.

For certain purposes, legitimate interests may be relied on, rather than consent. You can read more about this in our Privacy and Cookie Policy.